Location: Barrio de Canyet
(41.4665°N, 2.2381°E)
Time: 08:59:51
(UTC+00:00)

Cosmos 1833 Rocket - Pass Details

Date: 09 April 2020
Orbit: 834 x 838 km, 71.0° (Epoch: 03 June)

Event Time Altitude Azimuth Distance (km) Brightness Sun altitude
Exits shadow 22:20:44 35° 322° (NW) 1,329 4.1 -36.2°
Drops below altitude 10° 22:25:05 10° 9° (N) 2,458 5.6 -36.6°
Sets 22:27:44 0° 18° (NNE) 3,395 6.4 -36.8°
